Temperature
17 15 15 15 14 15 16 16 15 16 17 16 15 15 15 15 15 15 15 15 15 16 17 17 18 19 19 19 19 19 19 19 18 18 18 18 18 18 18 18 18 17 17 17
15 15 16 16 16 15 15 15 15 16 17 17 15 15 15 15 14 14 14 14 14 15 16 16 17 17 18 18 18 18 18 18 18 18 18 18 17 17 17 17 17 17 17 17
16 17 18 17 17 17 16 15 16 16 16 16 15 15 15 15 14 14 14 14 14 14 14 15 16 16 17 17 17 17 17 17 17 17 17 17 17 17 16 16 16 17 17 16
15 16 17 18 17 17 16 17 17 17 16 15 15 15 15 14 14 14 13 13 13 13 14 14 14 15 15 16 16 16 17 17 17 17 17 17 17 16 16 16 16 16 16 16
16 17 17 17 18 18 17 17 17 17 16 15 15 14 14 14 14 13 13 12 12 13 13 13 13 14 14 15 15 16 16 16 16 16 16 16 16 16 15 15 15 15 15 15
16 17 17 17 18 18 18 17 16 14 14 15 15 14 14 14 14 13 12 12 12 12 12 12 13 13 13 14 14 15 15 15 15 15 15 15 15 14 14 14 14 14 14 14
16 17 17 18 17 17 16 15 14 15 14 14 14 14 14 14 13 13 12 11 11 11 11 11 12 12 12 12 13 14 14 14 14 14 14 14 14 14 13 13 13 13 13 13
15 15 17 17 17 17 16 15 14 15 14 14 14 14 13 13 12 12 11 10 10 10 10 10 10 11 11 12 12 12 13 12 13 13 13 13 13 13 13 12 12 12 12 12
15 15 16 17 17 17 16 15 14 13 14 13 13 14 13 12 12 11 10 10 10 10 10 10 10 10 10 10 11 11 11 12 12 12 12 12 12 12 11 11 11 11 11 11
15 15 16 16 16 16 16 14 12 13 14 14 14 14 13 13 12 11 10 9 9 9 9 9 9 9 9 10 10 10 11 11 11 11 11 10 10 10 10 10 10 10 9 9
15 14 15 15 16 16 15 15 13 12 13 13 13 13 14 13 12 11 10 9 8 8 8 8 8 8 9 9 9 9 9 10 10 10 10 10 9 9 9 9 8 8 8 8
13 12 13 14 15 15 15 15 13 14 13 12 12 13 12 12 11 10 9 8 8 8 8 8 8 8 8 8 8 8 8 9 9 9 9 8 8 8 8 8 7 7 7 7
13 12 13 14 15 15 15 15 13 12 11 11 12 13 12 11 10 10 9 8 8 7 7 7 7 7 7 7 7 8 8 8 8 8 8 7 7 7 7 7 7 6 7 6
13 12 13 14 14 14 15 15 14 12 12 12 13 13 12 11 10 9 8 8 7 7 7 7 7 7 7 7 7 7 7 7 7 7 7 7 6 6 6 6 6 6 6 6
13 13 14 13 14 14 14 15 14 13 13 13 13 12 12 11 10 9 8 8 7 7 6 6 6 6 6 6 6 6 6 6 6 6 6 6 6 5 5 5 5 5 5 5
12 13 14 14 15 14 14 15 14 13 13 12 12 12 11 10 9 9 8 8 7 7 6 6 6 6 6 6 6 6 6 5 6 6 5 5 5 5 5 5 5 5 5 5
11 12 13 13 14 15 14 14 14 13 12 12 12 11 10 10 9 9 8 7 7 7 6 6 6 6 6 6 5 5 5 5 5 5 5 5 5 5 5 5 5 5 4 4
11 11 10 12 14 14 14 13 13 12 11 11 11 10 10 9 9 8 8 8 7 7 7 6 6 6 5 5 5 5 5 5 5 5 5 5 5 5 4 4 4 4 4 4
11 11 11 11 13 13 14 13 13 12 11 11 10 10 9 8 8 8 8 8 7 7 7 6 6 6 6 5 5 5 5 5 5 5 5 4 5 5 4 4 4 4 4 4
11 11 11 11 13 13 13 14 13 12 11 10 10 9 9 9 9 8 7 7 7 7 7 6 6 6 5 5 5 5 5 5 5 5 4 4 4 4 4 4 4 4 4 4
13 12 12 12 12 12 13 13 14 13 11 10 9 9 9 9 8 8 7 7 7 7 6 6 6 6 5 5 5 5 5 5 5 5 4 4 4 4 4 4 4 4 4 4
13 12 12 11 12 12 12 12 12 11 10 10 9 9 9 8 8 7 7 7 7 6 6 6 6 5 5 5 5 5 5 5 5 5 4 4 4 4 4 4 4 4 4 4
12 11 10 10 11 10 10 11 11 11 10 9 9 9 9 8 7 7 7 7 6 6 6 6 6 5 5 5 5 5 5 5 5 5 5 5 5 4 4 4 4 4 4 4
11 9 9 10 10 10 10 11 11 11 11 10 10 9 9 8 7 7 7 6 6 6 6 6 6 5 5 5 5 5 5 5 5 5 5 5 5 4 4 4 4 4 4 4
11 10 9 10 10 10 10 11 11 11 11 10 9 9 9 8 7 7 7 6 6 6 6 6 5 5 5 5 5 5 5 5 5 5 5 5 5 5 4 4 4 4 4 4
10 11 10 10 10 9 10 10 11 11 10 10 9 8 8 8 7 7 7 6 6 6 6 5 5 5 5 5 5 5 5 5 5 5 5 5 5 5 4 4 4 4 4 3
Wind_Speed
3 3 4 8 8 7 5 5 9 10 5 1 2 3 5 6 5 4 4 5 5 3 4 5 3 2 3 5 7 8 8 6 6 5 5 4 4 4 3 3 4 5 6 7
4 5 10 7 5 6 6 6 7 7 2 2 4 5 5 7 6 6 6 6 5 5 6 7 6 5 3 4 5 6 6 6 6 5 4 3 3 2 2 2 3 3 4 4
7 8 3 3 4 4 6 6 6 5 2 2 4 3 4 6 8 8 8 7 7 7 7 7 8 7 6 6 5 4 4 5 5 5 4 4 4 3 2 3 3 5 6 6
7 7 4 4 5 4 6 8 7 4 2 3 2 1 0 4 7 8 9 9 9 9 9 9 9 9 8 6 6 6 6 5 3 4 5 5 5 4 3 4 5 8 11 11
7 4 5 6 7 5 8 5 3 3 4 1 1 3 2 2 4 6 8 9 9 10 10 10 10 9 9 8 7 7 8 7 5 5 7 7 6 6 6 7 10 9 9 12
8 4 5 6 5 4 3 3 4 5 4 1 2 4 2 1 3 5 6 8 9 10 11 11 11 11 11 11 10 9 9 9 8 10 10 10 10 9 9 9 9 8 8 9
6 6 4 2 3 3 3 5 4 4 3 3 1 3 1 2 5 7 7 8 9 10 10 11 12 12 12 12 12 11 11 11 12 14 13 13 12 11 11 10 9 9 9 9
3 7 4 2 4 3 2 6 6 4 4 3 2 2 2 4 6 9 9 9 9 10 10 11 12 11 11 12 13 13 13 13 13 14 14 13 13 10 10 12 11 11 10 9
6 7 5 3 3 4 3 3 5 6 3 1 1 2 2 5 7 9 9 10 10 9 10 11 12 12 12 13 13 13 14 15 15 15 15 14 14 14 14 13 13 11 10 10
7 5 6 5 1 1 3 6 5 5 5 2 2 4 5 8 9 9 9 9 9 9 10 11 11 11 12 12 13 13 15 16 15 15 15 14 15 15 15 14 14 13 12 11
5 3 6 4 1 1 1 3 4 4 4 5 3 4 2 8 10 11 10 9 9 10 10 10 10 11 12 13 13 13 14 15 15 16 16 16 15 15 15 14 14 13 12 12
4 4 3 5 4 2 1 3 6 4 3 4 4 3 2 6 10 12 12 11 10 10 10 10 10 11 11 12 12 13 13 15 14 14 15 15 14 14 15 14 13 12 12 12
6 4 2 6 5 4 2 1 2 4 5 5 5 2 4 10 11 11 12 12 11 10 10 10 10 10 11 11 12 13 13 13 13 13 14 15 14 14 14 12 11 11 12 11
6 4 5 5 5 3 2 1 2 4 4 4 5 7 7 10 12 11 11 11 11 10 10 10 10 9 10 10 11 12 12 11 12 13 13 13 12 12 11 11 11 10 10 10
5 3 2 3 4 2 1 2 1 2 3 5 5 8 10 11 12 12 12 12 12 11 10 10 10 9 9 10 10 10 10 10 10 12 12 11 10 10 10 10 9 9 9 9
3 4 2 2 2 0 1 4 4 3 2 3 6 4 6 10 10 11 12 13 13 12 11 11 11 10 9 9 9 9 9 8 9 10 10 9 9 8 8 8 8 8 8 8
4 5 3 1 2 2 2 3 1 2 2 3 4 5 12 12 12 13 13 13 13 13 12 11 10 9 8 8 8 9 8 8 8 9 8 7 7 7 6 7 7 7 6 6
7 5 4 2 1 2 4 2 3 4 3 2 5 9 11 11 9 8 9 12 13 13 12 11 10 9 8 7 7 8 8 8 8 7 7 6 6 6 6 6 6 5 4 4
5 7 4 3 1 3 3 0 3 4 1 3 9 12 11 13 10 7 7 10 11 11 11 10 9 8 8 8 8 8 8 7 7 6 5 5 5 5 5 5 4 3 3 4
6 5 5 4 3 4 4 1 3 5 0 5 10 14 13 10 6 5 8 11 12 12 11 10 9 9 8 7 7 8 7 6 6 5 4 4 4 5 4 4 3 3 3 4
3 4 4 3 3 5 2 0 3 1 5 7 10 12 10 5 5 10 12 11 12 12 12 11 10 8 7 7 8 8 7 5 4 4 4 4 4 4 4 3 3 3 4 5
6 4 3 4 2 5 2 2 3 4 4 9 10 9 9 11 14 14 13 13 13 12 11 10 10 8 6 7 8 8 5 3 3 4 4 4 4 3 3 4 4 4 5 5
4 5 6 5 4 3 3 1 2 5 7 7 9 11 14 14 14 13 12 13 12 12 10 9 10 8 6 6 7 7 4 4 4 5 4 4 4 4 4 4 5 4 4 3
2 3 5 3 1 2 4 4 5 6 7 10 13 14 14 15 15 14 13 12 11 10 10 8 9 8 6 5 5 5 4 4 5 4 3 3 4 5 5 4 4 3 3 3
6 5 5 3 2 4 4 5 7 10 12 14 12 11 14 17 16 14 13 11 10 9 7 7 8 8 6 5 5 4 4 5 5 4 3 3 3 4 4 4 3 3 1 1
6 7 8 7 9 7 6 6 8 11 11 14 14 12 11 14 15 13 11 9 9 9 7 8 7 7 6 5 4 3 4 5 5 3 2 2 3 3 3 3 3 4 2 2
Wind_Direction
56 74 252 242 212 216 233 252 273 276 273 4 57 51 22 32 52 63 65 70 71 49 31 36 38 97 137 141 146 152 156 156 157 171 177 183 196 183 172 173 171 178 180 176
24 270 244 237 219 207 221 256 270 290 326 134 106 78 53 50 62 67 63 54 53 43 30 36 40 48 87 124 133 137 152 150 155 173 184 171 151 144 144 114 93 101 120 132
212 246 258 235 263 249 239 216 241 252 347 81 119 65 69 62 62 58 52 48 46 49 41 36 42 46 57 68 87 115 121 130 147 154 142 119 116 116 120 96 79 58 67 77
234 259 252 260 264 216 271 236 223 227 178 249 164 182 72 89 67 56 48 43 42 45 48 47 46 44 47 55 70 80 81 91 111 135 142 148 153 152 137 114 92 67 60 63
245 240 239 254 253 207 237 257 223 208 176 142 39 138 243 128 89 65 53 48 46 45 48 49 48 45 41 43 55 66 70 63 64 92 116 115 107 111 108 101 89 76 67 62
250 251 222 235 260 227 239 53 56 54 86 83 263 149 224 186 139 108 77 60 53 50 50 49 46 45 44 43 49 59 67 61 62 70 78 92 102 105 106 99 95 84 74 64
305 300 265 236 292 349 85 88 28 6 25 254 298 121 193 96 112 118 106 79 63 56 54 52 47 45 44 44 50 58 67 64 64 71 72 78 89 96 97 98 93 87 77 68
278 295 279 238 205 224 199 145 159 197 212 270 5 125 138 109 106 108 103 92 77 64 59 59 55 51 48 47 50 57 64 65 68 73 74 75 77 82 82 81 85 83 80 74
206 262 289 273 238 173 169 188 169 140 144 116 174 143 148 138 125 117 106 94 82 71 63 61 59 56 53 52 53 58 68 68 67 71 76 76 78 81 82 80 80 82 81 80
177 251 293 304 36 45 176 151 108 126 150 193 237 197 192 176 157 136 118 104 91 80 71 65 62 60 59 59 58 60 66 70 70 70 74 76 75 79 81 81 79 77 75 75
146 186 306 351 16 275 110 117 113 115 147 154 205 248 206 178 162 145 126 110 101 92 82 74 69 63 63 62 61 63 66 70 71 73 75 77 76 77 79 79 78 78 76 73
132 128 282 288 278 275 212 169 149 153 192 167 166 245 23 135 134 131 123 114 105 98 92 85 78 72 68 67 66 68 69 72 73 76 78 78 77 78 79 77 75 75 75 71
141 114 27 343 339 358 28 45 129 125 123 153 163 204 99 116 123 126 126 123 117 109 102 93 84 77 75 73 73 72 72 74 76 80 83 81 78 78 78 77 74 73 73 71
121 116 165 207 241 267 313 333 153 131 149 184 194 165 157 145 138 133 128 125 121 116 110 102 94 87 81 79 77 78 75 76 81 83 84 82 79 79 78 76 73 70 71 71
107 131 196 248 271 248 263 328 61 151 183 184 189 167 171 157 145 138 133 129 124 119 114 109 105 98 92 88 84 82 81 79 84 86 84 81 79 78 77 75 71 69 68 69
99 132 101 346 331 327 30 19 42 64 84 115 122 125 132 132 130 135 137 137 132 126 120 115 111 109 105 102 99 93 88 84 86 87 86 84 82 79 76 75 74 72 68 64
125 128 122 264 305 24 322 318 27 83 67 139 163 158 141 141 145 147 147 143 138 135 130 126 122 117 113 110 109 105 101 94 88 87 86 84 82 79 74 76 73 69 67 67
130 116 122 124 71 250 269 321 133 109 51 71 119 136 143 134 121 117 133 139 138 136 132 128 124 119 115 110 108 106 102 97 92 87 84 80 79 77 71 69 66 64 69 72
130 129 117 117 153 292 291 193 146 135 62 117 133 130 122 118 105 96 111 125 129 128 126 124 124 122 118 115 112 105 99 97 96 91 85 82 84 82 74 68 60 57 68 69
78 96 112 126 156 242 253 294 139 103 293 161 145 142 140 133 134 144 131 122 119 119 122 122 120 117 117 116 113 108 106 104 103 102 96 85 82 82 76 69 60 53 70 76
84 68 106 144 202 262 277 201 121 161 243 155 148 146 141 128 134 135 128 120 122 124 125 123 122 122 125 126 117 112 112 114 116 108 95 81 75 80 81 72 61 73 83 81
156 145 157 141 187 258 345 122 171 208 118 124 130 129 118 116 120 125 126 127 128 126 125 124 124 123 123 126 122 119 123 124 109 101 90 77 66 71 89 87 75 75 86 85
152 176 169 173 201 260 342 83 81 123 120 119 127 126 127 127 131 129 128 130 129 130 129 127 127 124 122 128 129 131 145 130 113 101 90 78 73 69 76 88 88 75 73 82
144 125 108 103 51 42 52 63 70 95 111 121 129 130 131 131 133 131 131 129 127 126 128 128 126 127 131 138 139 147 146 131 120 114 101 89 86 76 67 71 79 86 86 87
167 130 109 114 140 99 51 83 103 99 108 114 115 122 132 133 133 133 132 131 130 128 125 130 134 138 146 146 144 142 136 131 124 120 109 99 96 101 88 74 67 82 78 173
181 163 163 194 187 157 155 135 122 117 119 123 120 115 124 131 131 129 129 127 129 130 130 132 134 140 147 147 152 154 148 139 135 129 117 114 116 113 110 102 70 47 57 66
Height
1489 1494 1497 1494 1493 1493 1494 1495 1497 1489 1481 1483 1484 1485 1482 1480 1478 1477 1477 1478 1478 1478 1479 1480 1481 1483 1485 1487 1490 1494 1498 1501 1506 1510 1514 1517 1521 1524 1527 1529 1532 1534 1537 1539
1493 1494 1486 1484 1486 1489 1492 1495 1493 1485 1479 1481 1484 1485 1483 1482 1481 1481 1480 1480 1480 1480 1480 1479 1480 1481 1483 1485 1488 1492 1495 1498 1502 1506 1510 1514 1518 1520 1523 1526 1528 1531 1533 1535
1491 1486 1480 1482 1483 1486 1487 1491 1487 1485 1481 1481 1484 1488 1486 1485 1484 1483 1482 1482 1481 1481 1481 1480 1480 1481 1483 1485 1488 1490 1493 1496 1499 1503 1507 1510 1514 1517 1519 1522 1524 1527 1529 1531
1487 1480 1479 1480 1481 1481 1487 1477 1478 1479 1486 1491 1487 1497 1490 1487 1486 1486 1486 1485 1484 1483 1483 1482 1482 1482 1483 1485 1486 1489 1492 1495 1496 1500 1503 1505 1508 1511 1515 1518 1521 1524 1526 1528
1483 1478 1478 1479 1476 1474 1476 1471 1474 1476 1483 1489 1489 1496 1495 1488 1488 1489 1489 1488 1487 1486 1485 1484 1484 1484 1484 1485 1486 1488 1490 1492 1494 1497 1499 1501 1504 1508 1511 1515 1518 1521 1523 1525
1477 1473 1473 1472 1469 1469 1469 1473 1476 1483 1488 1496 1490 1496 1496 1490 1488 1489 1490 1490 1490 1488 1487 1487 1486 1486 1486 1487 1487 1488 1490 1492 1494 1494 1496 1499 1501 1505 1509 1512 1515 1518 1520 1522
1479 1474 1469 1469 1470 1469 1472 1483 1496 1496 1501 1499 1490 1493 1495 1488 1487 1488 1490 1492 1491 1491 1490 1489 1489 1488 1488 1489 1489 1490 1491 1492 1494 1494 1496 1498 1500 1503 1507 1510 1513 1516 1518 1520
1487 1485 1471 1467 1469 1472 1472 1479 1495 1500 1501 1500 1491 1493 1492 1488 1488 1489 1491 1492 1493 1493 1493 1492 1492 1491 1491 1491 1491 1491 1492 1494 1494 1495 1496 1500 1503 1504 1507 1510 1513 1515 1517 1520
1486 1483 1469 1466 1465 1468 1473 1478 1478 1490 1493 1501 1497 1492 1490 1489 1489 1491 1492 1494 1495 1496 1496 1495 1495 1495 1494 1494 1494 1494 1495 1496 1496 1497 1500 1502 1504 1506 1508 1511 1513 1515 1517 1520
1475 1481 1471 1467 1465 1466 1469 1473 1484 1490 1497 1500 1496 1492 1490 1487 1488 1490 1493 1495 1497 1498 1499 1499 1499 1498 1498 1498 1498 1498 1497 1497 1499 1500 1502 1505 1507 1508 1510 1512 1514 1516 1519 1521
1472 1480 1477 1471 1470 1471 1471 1475 1480 1489 1489 1498 1501 1496 1481 1482 1485 1489 1494 1497 1499 1501 1502 1502 1502 1502 1501 1501 1502 1501 1501 1501 1503 1504 1505 1508 1510 1511 1512 1515 1517 1519 1522 1523
1473 1481 1483 1475 1468 1467 1468 1470 1477 1484 1488 1490 1494 1495 1481 1482 1486 1490 1495 1498 1501 1503 1504 1505 1505 1505 1505 1506 1506 1506 1506 1506 1507 1508 1510 1512 1513 1515 1516 1519 1521 1524 1525 1526
1472 1481 1486 1483 1478 1471 1470 1470 1473 1479 1486 1491 1493 1492 1484 1485 1489 1492 1496 1500 1503 1505 1506 1507 1508 1509 1509 1509 1510 1510 1511 1511 1513 1514 1515 1516 1518 1520 1521 1524 1526 1528 1529 1530
1466 1478 1485 1486 1481 1475 1472 1470 1472 1477 1485 1486 1484 1484 1485 1486 1490 1494 1498 1501 1504 1506 1508 1509 1510 1512 1513 1513 1514 1515 1516 1517 1519 1520 1521 1522 1524 1525 1527 1529 1531 1532 1533 1534
1466 1475 1475 1475 1472 1471 1471 1470 1470 1473 1475 1480 1479 1480 1482 1485 1490 1495 1499 1502 1505 1508 1510 1512 1513 1515 1516 1518 1519 1520 1521 1523 1524 1525 1526 1527 1529 1531 1532 1534 1535 1537 1537 1538
1467 1473 1474 1474 1471 1471 1472 1470 1470 1472 1474 1476 1478 1482 1483 1487 1491 1495 1500 1503 1506 1509 1512 1514 1516 1518 1520 1522 1523 1524 1526 1527 1529 1530 1531 1533 1534 1536 1537 1538 1540 1541 1541 1541
1470 1473 1479 1481 1474 1472 1478 1473 1472 1474 1474 1476 1479 1481 1483 1488 1492 1496 1500 1504 1507 1510 1513 1516 1518 1521 1523 1525 1527 1528 1530 1532 1533 1534 1536 1538 1539 1541 1542 1543 1544 1544 1544 1544
1468 1475 1482 1482 1479 1484 1479 1470 1470 1474 1476 1476 1477 1480 1484 1488 1493 1497 1501 1504 1508 1511 1515 1518 1521 1524 1526 1528 1530 1532 1534 1536 1537 1539 1541 1543 1544 1545 1546 1546 1547 1547 1547 1547
1462 1471 1481 1486 1484 1481 1474 1471 1471 1474 1478 1478 1479 1483 1487 1491 1496 1501 1504 1506 1509 1513 1517 1520 1523 1526 1529 1531 1533 1535 1537 1539 1541 1543 1545 1546 1548 1548 1549 1549 1550 1550 1549 1549
1465 1468 1478 1483 1483 1484 1476 1470 1469 1474 1479 1479 1480 1483 1488 1491 1497 1503 1505 1508 1512 1515 1519 1523 1526 1529 1532 1534 1537 1538 1540 1543 1545 1546 1548 1549 1550 1551 1551 1551 1552 1551 1551 1550
1468 1473 1478 1481 1482 1478 1471 1469 1470 1480 1480 1477 1479 1483 1488 1491 1496 1501 1505 1510 1514 1517 1521 1525 1528 1532 1534 1537 1540 1542 1544 1546 1548 1549 1551 1552 1553 1553 1553 1554 1553 1553 1553 1552
1468 1473 1477 1482 1482 1481 1469 1469 1473 1475 1473 1475 1480 1485 1489 1493 1497 1502 1507 1511 1516 1520 1524 1527 1531 1534 1537 1540 1542 1544 1547 1549 1551 1552 1553 1554 1555 1555 1555 1555 1555 1554 1554 1553
1465 1468 1471 1475 1478 1472 1470 1470 1471 1471 1473 1477 1482 1487 1490 1494 1499 1504 1509 1514 1518 1522 1526 1530 1533 1536 1540 1543 1545 1547 1549 1551 1553 1554 1555 1556 1556 1556 1556 1556 1556 1555 1555 1554
1464 1465 1469 1472 1472 1471 1471 1471 1472 1473 1476 1479 1483 1488 1492 1496 1502 1507 1511 1516 1520 1524 1528 1532 1535 1538 1542 1544 1547 1549 1551 1553 1555 1556 1556 1557 1557 1557 1557 1557 1556 1556 1555 1555
1460 1463 1468 1471 1471 1472 1472 1473 1475 1477 1480 1483 1487 1491 1495 1499 1504 1509 1514 1518 1523 1527 1530 1534 1537 1540 1543 1546 1548 1551 1553 1554 1556 1557 1557 1558 1558 1558 1558 1558 1557 1557 1557 1556
1455 1458 1463 1465 1464 1468 1473 1475 1478 1480 1483 1486 1490 1494 1499 1502 1507 1512 1516 1521 1525 1529 1533 1536 1539 1542 1545 1547 1550 1552 1554 1555 1557 1558 1558 1559 1559 1559 1559 1559 1559 1559 1558 1558